| time (UTC) | temp C | wind direction | speed KPH | gust KPH | rain 1hr cm | rain 24hr cm | rain mn cm | humidity % | barometer mb |
| 20260507090021 | 16 | 214 | 11.3 | 22.5 | 0.00 | 0.51 | 0.00 | 69 | 1009.7 |
| 20260507084504 | 16 | 194 | 9.7 | 27.4 | 0.00 | 0.51 | 0.00 | 69 | 1009.5 |
| 20260507083051 | 16 | 273 | 8.0 | 19.3 | 0.00 | 0.51 | 0.00 | 72 | 1009.5 |
| 20260507081609 | 15 | 257 | 11.3 | 25.7 | 0.00 | 0.51 | 0.00 | 72 | 1009.3 |
| 20260507080039 | 16 | 205 | 9.7 | 27.4 | 0.00 | 0.51 | 0.00 | 74 | 1009.1 |
| 20260507074529 | 15 | 226 | 9.7 | 24.1 | 0.00 | 0.51 | 0.00 | 78 | 1009.2 |
| 20260507073003 | 15 | 206 | 12.9 | 25.7 | 0.00 | 0.51 | 0.00 | 80 | 1009.1 |
| 20260507071541 | 14 | 237 | 11.3 | 27.4 | 0.00 | 0.51 | 0.00 | 82 | 1009.0 |
| 20260507070009 | 13 | 223 | 11.3 | 27.4 | 0.00 | 0.51 | 0.00 | 87 | 1008.8 |
| 20260507064524 | 13 | 234 | 4.8 | 16.1 | 0.00 | 0.51 | 0.00 | 91 | 1008.7 |
| 20260507063109 | 13 | 176 | 8.0 | 16.1 | 0.00 | 0.51 | 0.00 | 94 | 1008.6 |
| 20260507061539 | 12 | 240 | 4.8 | 12.9 | 0.00 | 0.51 | 0.00 | 96 | 1008.4 |
| 20260507060050 | 11 | 218 | 3.2 | 11.3 | 0.00 | 0.51 | 0.00 | 96 | 1008.3 |
| 20260507054552 | 11 | 218 | 1.6 | 8.0 | 0.00 | 0.51 | 0.00 | 96 | 1008.2 |
| 20260507053002 | 11 | 228 | 1.6 | 6.4 | 0.00 | 0.51 | 0.00 | 96 | 1008.1 |
| 20260507051514 | 11 | 208 | 3.2 | 9.7 | 0.00 | 0.51 | 0.00 | 96 | 1008.0 |
| 20260507050056 | 11 | 171 | 1.6 | 6.4 | 0.00 | 0.51 | 0.00 | 96 | 1007.8 |
| 20260507044528 | 11 | 213 | 1.6 | 4.8 | 0.00 | 0.51 | 0.00 | 96 | 1007.5 |
| 20260507043059 | 10 | 219 | 3.2 | 6.4 | 0.00 | 0.51 | 0.00 | 96 | 1007.5 |
| 20260507041551 | 10 | 209 | 4.8 | 9.7 | 0.00 | 0.51 | 0.00 | 96 | 1007.2 |
| 20260507040137 | 10 | 207 | 3.2 | 8.0 | 0.00 | 0.51 | 0.00 | 96 | 1007.2 |
| 20260507034551 | 10 | 204 | 1.6 | 4.8 | 0.00 | 0.51 | 0.00 | 95 | 1007.0 |
| 20260507033054 | 10 | 205 | 0.0 | 3.2 | 0.00 | 0.51 | 0.00 | 95 | 1007.0 |
| 20260507031527 | 10 | 202 | 0.0 | 6.4 | 0.00 | 0.51 | 0.00 | 95 | 1007.0 |
| 20260507030024 | 11 | 190 | 0.0 | 3.2 | 0.00 | 0.51 | 0.00 | 95 | 1006.8 |
| 20260507024606 | 11 | 189 | 1.6 | 8.0 | 0.00 | 0.51 | 0.00 | 95 | 1006.7 |
| 20260507023025 | 11 | 207 | 1.6 | 12.9 | 0.00 | 0.51 | 0.00 | 95 | 1006.6 |
| 20260507021516 | 11 | 200 | 3.2 | 9.7 | 0.00 | 0.51 | 0.00 | 95 | 1006.6 |
| 20260507020109 | 11 | 209 | 3.2 | 9.7 | 0.00 | 0.51 | 0.00 | 95 | 1006.5 |
| 20260507014552 | 12 | 221 | 4.8 | 12.9 | 0.00 | 0.51 | 0.00 | 95 | 1006.5 |
| 20260507013018 | 12 | 219 | 1.6 | 8.0 | 0.00 | 0.51 | 0.00 | 95 | 1006.4 |
| 20260507011546 | 12 | 211 | 3.2 | 9.7 | 0.00 | 0.51 | 0.00 | 95 | 1006.2 |
| 20260507010025 | 12 | 217 | 0.0 | 8.0 | 0.00 | 0.51 | 0.00 | 95 | 1006.0 |
| 20260507004506 | 12 | 214 | 3.2 | 9.7 | 0.00 | 0.51 | 0.00 | 95 | 1005.9 |
| 20260507003042 | 12 | 216 | 4.8 | 11.3 | 0.00 | 0.51 | 0.00 | 95 | 1005.9 |
| 20260507001511 | 12 | 229 | 4.8 | 11.3 | 0.00 | 0.51 | 0.00 | 95 | 1005.8 |
| 20260507000052 | 13 | 227 | 1.6 | 4.8 | 0.00 | 0.51 | 0.00 | 95 | 1005.6 |
| 20260506234517 | 13 | 227 | 0.0 | 3.2 | 0.00 | 0.51 | 0.00 | 95 | 1005.4 |
| 20260506233030 | 13 | 227 | 0.0 | 4.8 | 0.00 | 0.51 | 0.00 | 95 | 1005.3 |
| 20260506231608 | 13 | 229 | 0.0 | 4.8 | 0.00 | 0.51 | 0.00 | 94 | 1005.4 |
| 20260506230058 | 13 | 229 | 0.0 | 3.2 | 0.00 | 0.51 | 0.00 | 94 | 1005.4 |
| 20260506224509 | 13 | 230 | 3.2 | 9.7 | 0.00 | 0.61 | 0.00 | 94 | 1005.4 |
| 20260506223056 | 13 | 240 | 0.0 | 6.4 | 0.03 | 0.61 | 0.00 | 94 | 1005.3 |
| 20260506221613 | 13 | 253 | 3.2 | 6.4 | 0.03 | 0.61 | 0.00 | 94 | 1005.3 |
| 20260506220039 | 13 | 115 | 0.0 | 4.8 | 0.05 | 0.61 | 0.00 | 94 | 1004.9 |
| 20260506214538 | 13 | 97 | 1.6 | 9.7 | 0.15 | 0.81 | 0.61 | 93 | 1005.0 |
| 20260506213020 | 13 | 130 | 3.2 | 12.9 | 0.18 | 0.79 | 0.61 | 93 | 1004.9 |
| 20260506211532 | 13 | 129 | 0.0 | 4.8 | 0.33 | 0.79 | 0.61 | 93 | 1005.1 |
| 20260506210049 | 14 | 196 | 0.0 | 3.2 | 0.36 | 0.76 | 0.56 | 92 | 1005.1 |
| 20260506204524 | 14 | 199 | 1.6 | 9.7 | 0.30 | 0.89 | 0.48 | 91 | 1005.4 |
| 20260506203053 | 15 | 222 | 1.6 | 12.9 | 0.23 | 0.84 | 0.43 | 89 | 1005.3 |
| 20260506201529 | 15 | 191 | 1.6 | 6.4 | 0.08 | 0.69 | 0.25 | 87 | 1005.0 |
| 20260506200036 | 15 | 59 | 0.0 | 8.0 | 0.03 | 0.61 | 0.20 | 83 | 1004.2 |
| 20260506194550 | 15 | 9 | 0.0 | 4.8 | 0.00 | 0.61 | 0.18 | 82 | 1003.9 |
| 20260506193104 | 15 | 292 | 0.0 | 11.3 | 0.00 | 0.61 | 0.18 | 82 | 1003.9 |
| 20260506191504 | 15 | 350 | 1.6 | 9.7 | 0.00 | 0.61 | 0.18 | 81 | 1003.6 |
| 20260506190020 | 16 | 322 | 0.0 | 0.0 | 0.00 | 0.61 | 0.18 | 81 | 1003.9 |
| 20260506184554 | 16 | 321 | 1.6 | 6.4 | 0.00 | 0.61 | 0.18 | 79 | 1003.4 |
| 20260506183107 | 16 | 74 | 1.6 | 4.8 | 0.00 | 0.61 | 0.18 | 79 | 1003.2 |
| 20260506181514 | 16 | 35 | 6.4 | 11.3 | 0.00 | 0.61 | 0.18 | 79 | 1002.6 |
| 20260506180041 | 16 | 75 | 3.2 | 12.9 | 0.00 | 0.61 | 0.18 | 79 | 1002.4 |
| 20260506174542 | 16 | 45 | 6.4 | 14.5 | 0.00 | 0.61 | 0.18 | 79 | 1002.5 |
| 20260506173106 | 16 | 15 | 3.2 | 9.7 | 0.00 | 0.61 | 0.18 | 79 | 1002.6 |
| 20260506171534 | 16 | 72 | 3.2 | 12.9 | 0.00 | 0.61 | 0.18 | 77 | 1002.6 |
| 20260506164512 | 16 | 65 | 1.6 | 6.4 | 0.03 | 0.61 | 0.18 | 77 | 1002.5 |
| 20260506163008 | 16 | 82 | 1.6 | 9.7 | 0.05 | 0.61 | 0.18 | 80 | 1002.7 |
| 20260506161522 | 16 | 102 | 6.4 | 16.1 | 0.08 | 0.61 | 0.18 | 82 | 1003.0 |
| 20260506160032 | 16 | 309 | 1.6 | 4.8 | 0.08 | 0.61 | 0.18 | 80 | 1002.6 |
| 20260506154603 | 16 | 155 | 0.0 | 8.0 | 0.05 | 0.58 | 0.15 | 79 | 1003.2 |
| 20260506153104 | 17 | 265 | 3.2 | 12.9 | 0.03 | 0.53 | 0.13 | 72 | 1003.1 |
| 20260506151553 | 18 | 225 | 3.2 | 14.5 | 0.00 | 0.51 | 0.10 | 65 | 1003.5 |
| 20260506150053 | 19 | 291 | 6.4 | 16.1 | 0.00 | 0.51 | 0.10 | 62 | 1003.2 |
| 20260506144528 | 20 | 287 | 6.4 | 17.7 | 0.00 | 0.51 | 0.10 | 57 | 1003.3 |
| 20260506143003 | 21 | 317 | 8.0 | 16.1 | 0.00 | 0.51 | 0.10 | 55 | 1003.3 |
| 20260506141540 | 21 | 259 | 8.0 | 12.9 | 0.00 | 0.51 | 0.10 | 53 | 1003.4 |
| 20260506140106 | 21 | 311 | 6.4 | 14.5 | 0.00 | 0.51 | 0.10 | 52 | 1003.4 |
| 20260506134600 | 22 | 219 | 1.6 | 8.0 | 0.00 | 0.51 | 0.10 | 51 | 1003.4 |
| 20260506133026 | 22 | 107 | 0.0 | 11.3 | 0.00 | 0.51 | 0.10 | 50 | 1003.4 |
| 20260506131604 | 22 | 69 | 1.6 | 6.4 | 0.00 | 0.51 | 0.10 | 50 | 1003.6 |
| 20260506130031 | 22 | 300 | 4.8 | 11.3 | 0.00 | 0.51 | 0.10 | 52 | 1003.9 |
| 20260506124551 | 21 | 265 | 1.6 | 9.7 | 0.00 | 0.51 | 0.10 | 54 | 1004.1 |
| 20260506123102 | 22 | 246 | 6.4 | 16.1 | 0.00 | 0.51 | 0.10 | 55 | 1004.3 |
| 20260506121556 | 21 | 164 | 0.0 | 11.3 | 0.00 | 0.51 | 0.10 | 54 | 1004.5 |
| 20260506114517 | 20 | 218 | 1.6 | 11.3 | 0.00 | 0.51 | 0.10 | 60 | 1004.7 |
| 20260506113041 | 20 | 299 | 3.2 | 12.9 | 0.00 | 0.51 | 0.10 | 59 | 1004.9 |
| 20260506111540 | 19 | 178 | 4.8 | 16.1 | 0.00 | 0.51 | 0.10 | 61 | 1005.1 |
| 20260506110003 | 19 | 246 | 6.4 | 14.5 | 0.00 | 0.51 | 0.10 | 62 | 1005.1 |
| 20260506104517 | 19 | 230 | 8.0 | 14.5 | 0.00 | 0.51 | 0.10 | 61 | 1005.2 |
| 20260506103015 | 19 | 242 | 6.4 | 12.9 | 0.00 | 0.51 | 0.10 | 62 | 1005.4 |
| 20260506101545 | 18 | 227 | 3.2 | 17.7 | 0.00 | 0.51 | 0.10 | 65 | 1005.4 |
| 20260506100013 | 18 | 240 | 1.6 | 16.1 | 0.00 | 0.51 | 0.10 | 68 | 1005.4 |
| 20260506094552 | 17 | 214 | 4.8 | 14.5 | 0.00 | 0.51 | 0.10 | 70 | 1005.4 |
| 20260506093031 | 17 | 238 | 6.4 | 16.1 | 0.00 | 0.51 | 0.10 | 70 | 1005.2 |
| 20260506091552 | 17 | 201 | 4.8 | 22.5 | 0.00 | 0.51 | 0.10 | 67 | 1005.4 |